[[{"header":{"parameterUnit":"m.s-1","parameterCategory":1,"la1":30.2992,"la2":30.254,"lo1":-89.0895,"lo2":-89.0443,"dy":0.0025,"dx":0.0025,"nx":19,"ny":19,"refTime":"2026-03-17T21:00:00:Z","depth":0,"parameterNumber":2,"parameterNumberName":"U-component_of_WINDS"},"data":[0,0,0,0.9582,0.958,0.9465,0.9465,0.933,0.9329,0,0,0,0,0,0,0,0,0,0,0,0.9626,0.9626,0.9582,0.9579,0.9466,0.9465,0.9331,0.9329,0,0,0,0,0,0,0,0,0,0,0,0.9626,0.9626,0.9625,0.9579,0.9466,0.9465,0.9331,0.9412,0,0,0,0,0,0,0,0,0,0,0.952,0.9573,0.9626,0.9625,0.9578,0.9466,0.9465,0.9416,0.9407,0.9388,0,0.9378,0,0.9352,0.9322,0.9321,0,0,0,0.957,0.9581,0.954,0.9625,0.9577,0.9466,0.9514,0.9411,0.9401,0.9377,0.9376,0.9371,0.935,0.9321,0.932,0.925,0.9251,0,0,0.9577,0.9611,0.9547,0.9535,0.9557,0.9518,0.9511,0.9404,0.9404,0.9375,0.9367,0.9348,0.932,0.9319,0.925,0.925,0,0,0,0.9601,0.9616,0.9578,0.9541,0.9519,0.9515,0.9507,0.9409,0.9394,0.9365,0.9346,0.9319,0.9318,0.925,0.925,0.9289,0,0,0,0.9604,0.963,0.9581,0.9601,0.9522,0.9464,0.9514,0.9401,0.9388,0.9347,0.9319,0.9317,0.925,0.925,0.9288,0.9301,0,0,0,0.963,0.9632,0.962,0.9603,0.9555,0.9465,0.9443,0.9398,0.9377,0.9321,0.9316,0.925,0.925,0.9287,0.9299,0.9292,0,0,0,0.9666,0.9656,0.9621,0.9601,0.9557,0.9491,0.9443,0.9392,0.9349,0.9319,0.925,0.925,0.9286,0.9298,0.9291,0.9292,0.9297,0,0,0.9671,0.9657,0.9642,0.9609,0.9558,0.9505,0.9459,0.9385,0.9347,0.9284,0.9282,0.9288,0.9299,0.9292,0.9309,0.9313,0,0,0,0.9655,0.9645,0.9624,0.9587,0.9532,0.9485,0.9416,0.9388,0.9333,0.9323,0.9283,0.9288,0.9283,0.9282,0.9285,0.9277,0.9252,0.9252,0.9252,0.9711,0.9665,0.9636,0.9576,0.9539,0.9468,0.9432,0.9382,0.9345,0.9336,0.9317,0.9333,0.9333,0.9335,0.9328,0.9314,0.9314,0.9314,0.9315,0.9713,0.969,0.9642,0.9597,0.9546,0.9506,0.9436,0.9411,0.9364,0.9344,0.9337,0.9319,0.9341,0.9331,0.9317,0.9317,0.9316,0.9316,0.9316,0.9743,0.9724,0.9693,0.9632,0.959,0.9527,0.9485,0.944,0.9397,0.939,0.9363,0.9362,0.9355,0.9381,0.9381,0.9381,0.9381,0.9381,0.9381,0.9787,0.975,0.9722,0.9663,0.9632,0.9584,0.9512,0.9478,0.9429,0.9399,0.9399,0.9361,0.9353,0.9351,0.9381,0.9381,0.9381,0.9381,0.9381,0.9804,0.9793,0.975,0.9719,0.9644,0.9604,0.9548,0.9484,0.9449,0.9429,0.9393,0.9394,0.9376,0.9373,0.9371,0.9404,0.9404,0.9404,0.9404,0.9829,0.9816,0.9761,0.9714,0.9662,0.9607,0.9555,0.9497,0.9435,0.941,0.9398,0.9392,0.9392,0.9373,0.937,0.9367,0.9399,0.9399,0.9399,0.9836,0.9816,0.9782,0.9725,0.9663,0.9609,0.9559,0.9504,0.943,0.9398,0.9389,0.9389,0.9379,0.9378,0.9346,0.9343,0.9337,0,0]},{"header":{"parameterUnit":"m.s-1","parameterCategory":1,"la1":30.2992,"la2":30.254,"lo1":-89.0895,"lo2":-89.0443,"dy":0.0025,"dx":0.0025,"nx":19,"ny":19,"refTime":"2026-03-17T21:00:00:Z","depth":0,"parameterNumber":3,"parameterNumberName":"V-component_of_WINDS"},"data":[0,0,0,1.1873,1.1873,1.1885,1.1885,1.1904,1.1904,0,0,0,0,0,0,0,0,0,0,0,1.1874,1.1874,1.1873,1.1873,1.1885,1.1885,1.1904,1.1904,0,0,0,0,0,0,0,0,0,0,0,1.1874,1.1874,1.1875,1.1873,1.1885,1.1885,1.1904,1.1893,0,0,0,0,0,0,0,0,0,0,1.1881,1.1887,1.1874,1.1875,1.1873,1.1885,1.1885,1.1893,1.1894,1.1901,0,1.1911,0,1.1908,1.1906,1.1906,0,0,0,1.1869,1.1886,1.1885,1.1875,1.1874,1.1885,1.1879,1.1893,1.1895,1.1903,1.1911,1.1911,1.1908,1.1906,1.1906,1.1963,1.1963,0,0,1.1869,1.1879,1.1884,1.1886,1.1887,1.1878,1.1879,1.1894,1.1903,1.1911,1.1912,1.1908,1.1906,1.1906,1.1963,1.1963,0,0,0,1.187,1.1878,1.1877,1.1886,1.1888,1.1879,1.188,1.1902,1.1901,1.1912,1.1909,1.1906,1.1907,1.1962,1.1963,1.1994,0,0,0,1.1869,1.1879,1.1877,1.1883,1.1888,1.1896,1.1888,1.19,1.1901,1.1909,1.1906,1.1907,1.1962,1.1962,1.1992,1.2006,0,0,0,1.1872,1.1879,1.1883,1.1883,1.1889,1.1895,1.1895,1.19,1.1899,1.1906,1.1907,1.1961,1.1962,1.199,1.2004,1.2023,0,0,0,1.1877,1.1911,1.1883,1.1919,1.1889,1.1915,1.1894,1.1913,1.1923,1.1907,1.1962,1.1963,1.199,1.2002,1.2021,1.204,1.2049,0,0,1.1925,1.1917,1.1937,1.1913,1.1946,1.1912,1.1949,1.1949,1.194,1.1955,1.1956,1.1992,1.2003,1.2022,1.2099,1.2106,0,0,0,1.1956,1.197,1.1977,1.1986,1.1986,1.1986,1.1979,1.1978,1.199,1.1951,1.2005,1.2011,1.2021,1.203,1.2036,1.2043,1.1967,1.1967,1.1967,1.2038,1.2024,1.2055,1.2042,1.2051,1.2042,1.2047,1.2043,1.2028,1.2041,1.2045,1.2093,1.2104,1.2108,1.2116,1.2055,1.2055,1.2055,1.2055,1.2105,1.2122,1.2099,1.2121,1.2105,1.2122,1.2113,1.21,1.2113,1.209,1.2098,1.2074,1.2117,1.2123,1.2057,1.2057,1.2057,1.2056,1.2056,1.2156,1.2162,1.216,1.217,1.2178,1.2163,1.2175,1.2161,1.2147,1.2156,1.2157,1.2156,1.2152,1.2157,1.2158,1.2158,1.2158,1.2158,1.2158,1.221,1.2207,1.2219,1.222,1.2222,1.2223,1.2211,1.2212,1.2209,1.2198,1.2198,1.2179,1.2124,1.211,1.2161,1.216,1.216,1.216,1.2159,1.2282,1.2262,1.2282,1.2284,1.2281,1.2289,1.227,1.2273,1.2271,1.2277,1.2256,1.2218,1.2209,1.2204,1.2192,1.226,1.226,1.226,1.226,1.2324,1.2317,1.2332,1.2336,1.2338,1.2322,1.2341,1.233,1.2316,1.2314,1.2301,1.2285,1.228,1.2273,1.2266,1.2255,1.2338,1.2338,1.2338,1.2366,1.2358,1.2379,1.2365,1.2361,1.2357,1.2374,1.2376,1.2357,1.2341,1.2311,1.2307,1.228,1.2272,1.2256,1.2246,1.2224,0,0]}]]